Weather History for Thermal, CA

Change the Weather History Date:

Friday, April 5, 2013

  Actual Average Record
Temperature  
Mean Temperature 74 °F 68 °F  
Max Temperature 89 °F 85 °F 104 °F (1989)
Min Temperature 58 °F 50 °F 37 °F (1999)
Degree Days  
Heating Degree Days 0 1  
Month to date heating degree days 0 6  
Since 1 July heating degree days 1122 1163  
Cooling Degree Days 9 4  
Month to date cooling degree days 49 19  
Year to date cooling degree days 211 93  
Growing Degree Days 25 (Base 50)    
Moisture  
Dew Point 43 °F    
Average Humidity 37    
Maximum Humidity 60    
Minimum Humidity 14    
Precipitation  
Precipitation 0.00 in 0.00 in 0.00 in (2014)
Month to date precipitation 0.00 0.02  
Year to date precipitation 0.44 1.73  
Since 1 July precipitation 2.62 3.11  
Snow  
Snow 0.00 in - - ()
Month to date snowfall 0.0  
Year to date snowfall 0.0  
Since 1 July snowfall 0.0  
Snow Depth 0.00 in    
Sea Level Pressure  
Sea Level Pressure 29.87 in    
Wind  
Wind Speed 9 mph (NW)    
Max Wind Speed 18 mph    
Max Gust Speed 24 mph    
Visibility 10 miles    
Events      
T = Trace of Precipitation, MM = Missing Value Source: NWS Daily Summary

Daily Weather History Graph

Daily Weather History Graph

Search for Another Location

Airport:

Trip Planner

Search our weather history database for the weather conditions in past years. The results will help you decide how hot, cold, wet, or windy it might be!

Date:

Astronomy

Apr. 05, 2013 Rise Set
Actual Time 6:26 AM PDT 7:08 PM PDT
Civil Twilight 6:01 AM PDT 7:33 PM PDT
Nautical Twilight 5:31 AM PDT 8:03 PM PDT
Astronomical Twilight 5:01 AM PDT 8:33 PM PDT
Moon 3:23 AM PDT (4/5) 2:49 PM PDT (4/5)
Length of Visible Light 13h 32m
Length of Day
12h 41m
Waning Crescent, 22% of the Moon is Illuminated
Apr 5
Waning Crescent
Apr 10
New
Apr 18
First Quarter
Apr 25
Full
May 2
Last Quarter

Hourly Weather History & Observations

Time (PDT) Temp. Dew Point Humidity Pressure Visibility Wind Dir Wind Speed Gust Speed Precip Events Conditions
12:52 AM 75.0 °F 39.9 °F 28% 29.89 in 10.0 mi NNW 15.0 mph - N/A   Clear
1:52 AM 73.0 °F 43.0 °F 34% 29.89 in 10.0 mi NNW 15.0 mph - N/A   Clear
2:52 AM 72.0 °F 44.1 °F 37% 29.89 in 10.0 mi NNW 15.0 mph 21.9 mph N/A   Clear
3:52 AM 69.1 °F 44.1 °F 40% 29.88 in 10.0 mi NW 10.4 mph - N/A   Clear
4:52 AM 69.1 °F 46.0 °F 44% 29.87 in 10.0 mi NNW 12.7 mph - N/A   Clear
5:52 AM 63.0 °F 46.0 °F 54% 29.88 in 10.0 mi WNW 3.5 mph - N/A   Clear
6:52 AM 61.0 °F 46.0 °F 58% 29.89 in 10.0 mi Calm Calm - N/A   Clear
7:52 AM 69.1 °F 50.0 °F 51% 29.92 in 10.0 mi WNW 4.6 mph - N/A   Clear
8:52 AM 73.9 °F 46.9 °F 38% 29.96 in 10.0 mi NW 13.8 mph - N/A   Clear
9:52 AM 77.0 °F 46.0 °F 33% 29.93 in 10.0 mi NW 9.2 mph - N/A   Clear
10:52 AM 81.0 °F 39.0 °F 22% 29.96 in 10.0 mi SE 4.6 mph - N/A   Clear
11:52 AM 82.9 °F 37.0 °F 19% 29.91 in 10.0 mi NNW 4.6 mph - N/A   Clear
12:52 PM 84.9 °F 30.9 °F 14% 29.88 in 10.0 mi SW 3.5 mph - N/A   Clear
1:52 PM 87.1 °F 34.0 °F 15% 29.86 in 10.0 mi NW 8.1 mph - N/A   Clear
2:52 PM 89.1 °F 34.0 °F 14% 29.83 in 10.0 mi NW 10.4 mph - N/A   Clear
3:52 PM 89.1 °F 33.1 °F 14% 29.81 in 10.0 mi NNW 10.4 mph - N/A   Clear
4:52 PM 88.0 °F 39.9 °F 18% 29.80 in 10.0 mi North 12.7 mph - N/A   Clear
5:52 PM 84.0 °F 41.0 °F 22% 29.80 in 10.0 mi NNW 18.4 mph 26.5 mph N/A   Clear
6:52 PM 79.0 °F 43.0 °F 28% 29.79 in 10.0 mi NNW 20.7 mph - N/A   Clear
7:52 PM 75.9 °F 45.0 °F 33% 29.80 in 10.0 mi NNW 17.3 mph 24.2 mph N/A   Clear
8:52 PM 75.0 °F 48.9 °F 40% 29.83 in 8.0 mi NNW 20.7 mph 29.9 mph N/A   Clear
9:52 PM 73.0 °F 48.0 °F 41% 29.84 in 10.0 mi NNW 21.9 mph 31.1 mph N/A   Clear
10:52 PM 72.0 °F 48.9 °F 44% 29.85 in 10.0 mi NNW 20.7 mph 31.1 mph N/A   Clear
11:52 PM 72.0 °F 50.0 °F 46% 29.88 in 10.0 mi NNW 16.1 mph 26.5 mph N/A   Clear